DW5247 Lemo FI current weather conditions

sailwx.info

Wind from 293 at 3 knots gusting 7

Air temperature 21.1° C
Dewpoint 9.3° C

Last reported at 2016-May-23 12:02 UTC.
Time now 2016-May-24 15:47 UTC

Location: N 62°41' E 029°49'.
View on Google Maps.

See reports from other nearby stations

  
Tides and Currents Weather Stations Pressure Air Temp Water Temp Dewpoint Dewpoint Depression Visibility Wind Speed Wind Dir Waves Ship Positions
date/time (UTC)wind fromknots sea level pressurealtimeterstation pressurevisibilityair tempwater tempwave heightnotes
2016-May-23 12:02 293 3 gusting 7 21.1
2016-May-23 11:57 180 3 gusting 7 21.1
2016-May-23 11:52 135 3 gusting 6 20.6
2016-May-23 11:47 225 2 gusting 6 21.1
2016-May-23 11:42 180 3 gusting 8 20.6
2016-May-23 11:37 068 4 gusting 8 20.6
2016-May-23 11:32 203 4 gusting 6 20.6
2016-May-23 11:27 158 3 gusting 5 20.6
2016-May-23 11:22 090 1 gusting 6 20.6
2016-May-23 11:17 315 2 gusting 4 20.6
2016-May-23 11:12 158 3 gusting 5 20.6
2016-May-23 11:07 293 2 gusting 5 20.6
2016-May-23 11:02 338 2 gusting 4 20.6
2016-May-23 10:57 203 2 gusting 5 20.6
2016-May-23 10:52 248 3 gusting 6 20.6
2016-May-23 10:47 180 2 gusting 6 20.6
2016-May-23 10:42 248 3 gusting 6 20.6
2016-May-23 10:37 090 2 gusting 6 20.6
2016-May-23 10:32 248 2 gusting 6 20.6
2016-May-23 10:27 315 2 gusting 6 20.6
2016-May-23 10:22 180 2 gusting 6 20.6
2016-May-23 10:17 068 3 gusting 6 20.6
2016-May-23 10:12 180 2 gusting 6 20.6
2016-May-23 10:07 135 2 gusting 4 20.6
2016-May-23 10:02 248 1 gusting 4 20.6
2016-May-23 09:57 158 1 gusting 2 20.6
2016-May-23 09:52 068 0 gusting 3 20.6
2016-May-23 09:47 068 0 gusting 3 20.6
2016-May-23 09:42 113 0 gusting 3 20.0
2016-May-23 09:37 068 0 gusting 2 20.0
2016-May-23 09:32 045 0 gusting 2 20.0
2016-May-23 09:27 023 0 gusting 3 20.0
2016-May-23 09:22 338 0 gusting 3 20.0
2016-May-23 09:17 338 0 gusting 3 20.6
2016-May-23 09:12 068 0 gusting 3 20.6
2016-May-23 09:07 113 1 gusting 3 20.6
2016-May-23 09:02 113 1 gusting 3 20.6
2016-May-23 08:57 068 1 gusting 3 20.6
2016-May-23 08:52 113 0 gusting 2 20.0
2016-May-23 08:47 023 0 gusting 2 20.0
2016-May-23 08:42 20.0
2016-May-23 08:37 338 0 gusting 3 20.0
2016-May-23 08:32 090 20.0
2016-May-23 08:27 135 0 gusting 4 20.0
2016-May-23 08:22 090 1 gusting 4 20.0
2016-May-23 08:17 068 1 gusting 5 19.4
2016-May-23 08:12 113 1 gusting 5 19.4
2016-May-23 08:07 068 1 gusting 5 19.4
2016-May-23 08:02 068 0 gusting 2 19.4
2016-May-23 07:57 023 0 gusting 1 19.4
2016-May-23 07:52 068 0 gusting 2 19.4
2016-May-23 07:47 068 0 gusting 2 19.4
2016-May-23 07:42 068 0 gusting 2 18.9
2016-May-23 07:37 135 0 gusting 1 18.9
2016-May-23 07:32 225 0 gusting 4 18.9
2016-May-23 07:27 023 1 gusting 4 18.9
2016-May-23 07:22 338 1 gusting 4 18.9
2016-May-23 07:17 068 0 gusting 2 18.9
2016-May-23 07:12 045 1 gusting 2 18.9
2016-May-23 07:07 045 1 gusting 2 18.9
2016-May-23 07:02 293 0 gusting 2 18.9
2016-May-23 06:57 068 0 gusting 3 18.9
2016-May-23 06:52 068 1 gusting 3 18.3
2016-May-23 06:47 18.3
2016-May-23 06:37 315 0 gusting 2 18.3
2016-May-23 06:32 045 0 gusting 1 17.8
2016-May-23 06:27 068 0 gusting 2 17.8
2016-May-23 06:22 068 0 gusting 2 17.8
2016-May-23 06:17 068 0 gusting 2 17.8
2016-May-23 06:12 068 1 gusting 2 17.2
2016-May-23 06:07 023 1 gusting 2 17.2
2016-May-23 06:02 068 0 gusting 2 16.7
2016-May-23 05:57 023 0 gusting 2 16.7
2016-May-23 05:52 068 0 gusting 1 16.1
2016-May-23 05:47 068 16.1
2016-May-23 05:42 338 15.6
2016-May-23 05:37 068 15.6
2016-May-23 05:32 15.0
2016-May-23 05:27 023 0 gusting 2 15.0
2016-May-23 05:22 023 0 gusting 4 14.4
2016-May-23 05:17 315 1 gusting 4 14.4
2016-May-23 05:12 023 1 gusting 4 13.9
2016-May-23 05:07 13.9
2016-May-23 05:02 023 1 gusting 4 13.3
2016-May-23 04:57 023 1 gusting 3 13.3
2016-May-23 04:52 023 0 gusting 0 13.3
2016-May-23 04:47 023 12.8
2016-May-23 04:42 023 12.8
2016-May-23 04:37 12.2
2016-May-23 04:32 068 12.2
2016-May-23 04:27 12.2
2016-May-23 04:22 315 11.7
2016-May-23 04:17 023 11.7
2016-May-23 04:12 023 11.7
2016-May-23 04:07 023 11.7
2016-May-23 04:02 11.1
2016-May-23 03:57 315 11.1
2016-May-23 03:52 315 10.6
2016-May-23 03:47 315 10.6
2016-May-23 03:42 315 10.6
2016-May-23 03:37 338 0 gusting 1 10.0
2016-May-23 03:32 338 0 gusting 3 10.0
2016-May-23 03:27 338 1 gusting 3 9.4
2016-May-23 03:22 315 1 gusting 3 9.4
2016-May-23 03:17 338 1 gusting 1 8.9
2016-May-23 03:12 338 0 gusting 1 8.9
2016-May-23 03:07 315 8.3
2016-May-23 03:02 338 8.3
2016-May-23 02:57 315 7.8
2016-May-23 02:52 338 7.8
2016-May-23 02:47 090 7.2
2016-May-23 02:42 7.2
2016-May-23 02:37 6.7
2016-May-23 02:32 338 6.7
2016-May-23 02:27 023 6.7
2016-May-23 02:22 338 6.1
2016-May-23 02:17 023 6.1
2016-May-23 02:12 023 6.1
2016-May-23 02:07 180 6.1
2016-May-23 02:02 180 6.1
2016-May-23 01:57 180 6.1
2016-May-23 01:52 180 6.1
2016-May-23 01:47 180 6.1
2016-May-23 01:42 180 6.1
2016-May-23 01:37 180 6.1
2016-May-23 01:32 180 6.1
2016-May-23 01:27 180 6.1
2016-May-23 01:22 180 6.1
2016-May-23 01:17 180 6.1
2016-May-23 01:12 180 6.1
2016-May-23 01:07 180 6.1
2016-May-23 01:02 158 6.1
2016-May-23 00:57 158 6.1
2016-May-23 00:52 158 6.1
2016-May-23 00:47 158 6.7
2016-May-23 00:42 158 6.7
2016-May-23 00:37 180 6.7
2016-May-23 00:32 180 6.7
2016-May-23 00:27 180 6.7
2016-May-23 00:22 180 6.7
2016-May-23 00:17 180 6.7
2016-May-23 00:12 293 6.7
2016-May-23 00:07 293 6.7
2016-May-23 00:02 293 6.7
2016-May-22 23:57 293 6.7
2016-May-22 23:52 293 6.7
2016-May-22 23:47 293 6.7
2016-May-22 23:42 293 6.7
2016-May-22 23:37 293 6.7
2016-May-22 23:32 158 7.2
2016-May-22 23:27 158 7.2
2016-May-22 23:22 158 7.2
2016-May-22 23:17 203 7.2
2016-May-22 23:12 315 7.2
2016-May-22 23:07 315 7.8
2016-May-22 23:02 315 7.2
2016-May-22 22:57 180 7.8
2016-May-22 22:52 180 7.8
2016-May-22 22:47 225 7.8
2016-May-22 22:42 158 7.8
2016-May-22 22:37 203 7.8
2016-May-22 22:32 203 7.8
2016-May-22 22:27 225 7.8
2016-May-22 22:22 225 8.3
2016-May-22 22:17 225 8.3
2016-May-22 22:12 225 8.3
2016-May-22 22:07 203 8.3
2016-May-22 22:02 203 8.3
2016-May-22 21:57 203 8.9
2016-May-22 21:52 248 8.9
2016-May-22 21:47 248 8.9
2016-May-22 21:42 248 8.9
2016-May-22 21:37 248 8.9
2016-May-22 21:32 248 9.4
2016-May-22 21:27 203 9.4
2016-May-22 21:22 203 9.4
2016-May-22 21:17 180 9.4
2016-May-22 21:12 225 10.0
2016-May-22 21:07 225 10.0
2016-May-22 20:57 225 10.0
2016-May-22 20:52 225 10.6
2016-May-22 20:47 225 10.6
2016-May-22 20:42 225 10.6
2016-May-22 20:37 225 10.6
2016-May-22 20:32 248 11.1
2016-May-22 20:27 225 11.1
2016-May-22 20:22 203 11.1
2016-May-22 20:17 203 11.7
2016-May-22 20:12 203 11.7
2016-May-22 20:07 225 11.7
2016-May-22 20:02 225 11.7
2016-May-22 19:57 203 12.2
2016-May-22 19:52 180 12.2
2016-May-22 19:47 180 12.8
2016-May-22 19:42 203 12.8
2016-May-22 19:37 180 12.8
2016-May-22 19:32 158 13.3
2016-May-22 19:27 158 13.3
2016-May-22 19:22 180 13.3
2016-May-22 19:17 180 13.9
2016-May-22 19:12 225 13.9
2016-May-22 19:07 315 13.9
2016-May-22 19:02 315 14.4
2016-May-22 18:57 315 14.4
2016-May-22 18:52 315 14.4
2016-May-22 18:47 315 15.0
2016-May-22 18:42 315 15.0
2016-May-22 18:37 315 15.0
2016-May-22 18:32 315 15.6
2016-May-22 18:27 315 15.6
2016-May-22 18:22 315 15.6
2016-May-22 18:17 315 15.6
2016-May-22 18:12 315 16.1
2016-May-22 18:07 315 16.1
2016-May-22 18:02 315 16.1
2016-May-22 17:57 315 16.1
2016-May-22 17:52 338 16.1
2016-May-22 17:47 338 16.1
2016-May-22 17:42 338 16.1
2016-May-22 17:37 338 0 gusting 4 16.7
2016-May-22 17:32 338 2 gusting 5 16.7
2016-May-22 17:27 315 3 gusting 5 16.7
2016-May-22 17:22 293 3 gusting 5 16.7
2016-May-22 17:17 315 3 gusting 4 16.7
2016-May-22 17:12 338 1 gusting 3 16.7
2016-May-22 17:07 315 0 gusting 1 16.7
2016-May-22 17:02 293 16.7
2016-May-22 16:57 338 0 gusting 1 16.7
2016-May-22 16:52 293 0 gusting 1 16.7
2016-May-22 16:47 315 16.7
2016-May-22 16:42 16.7
2016-May-22 16:37 248 16.7
2016-May-22 16:32 293 16.7
2016-May-22 16:27 293 16.7
2016-May-22 16:22 248 1 gusting 3 16.7
2016-May-22 16:17 315 1 gusting 3 16.7
2016-May-22 16:12 225 0 gusting 2 16.7
2016-May-22 16:07 270 1 gusting 3 16.7
2016-May-22 16:02 338 1 gusting 3 16.7
2016-May-22 15:57 315 2 gusting 3 16.7
2016-May-22 15:52 270 2 gusting 3 17.2
2016-May-22 15:47 315 1 gusting 3 17.2
2016-May-22 15:42 270 0 gusting 2 17.2
2016-May-22 15:37 270 0 gusting 1 17.2
2016-May-22 15:32 203 0 gusting 3 17.2
2016-May-22 15:27 180 1 gusting 3 17.2
2016-May-22 15:22 315 1 gusting 3 17.2
2016-May-22 15:17 315 2 gusting 2 17.2
2016-May-22 15:12 203 1 gusting 4 17.2
2016-May-22 15:07 225 1 gusting 4 16.7
2016-May-22 15:02 248 1 gusting 4 16.7